OpenBCM V2.0.3 (Linux)

Packet Radio Mailbox

IZ3LSV

[San Dona' di P. JN]

 Login: GUEST





  
I0OJJ  > AMSAT    17.05.26 02:31l 338 Lines 15970 Bytes #999 (0) @ WW
BID : 11Z_IR0EQ
Read: GUEST
Subj: 2Line Orbital Elements
Path: IZ3LSV<I0OJJ<IR0EQ
Sent: 260517/0026z @:IR0EQ.ITA.EU [Rome] $:11Z_IR0EQ

>From i0ojj%ir0eq.ita.eu@i0ojj.ampr.org Sun May 17 02:26:31 2026
Received: from i0ojj.ampr.org by i0ojj.ampr.org (JNOS2.0q.1) with SMTP
	id AA17059680 ; Sun, 17 May 2026 02:26:31 +0200
Message-Id: <11Z_IR0EQ@i0ojj.bbs>
>From: i0ojj@ir0eq.ita.eu
X-JNOS-User-Port: Telnet   (i0ojj @ 44.27.18.9)  ->   Sending message

>From i0ojj@rgate.ampr.org Sun May 17 02:26:29 2026
Received: from rgate.ampr.org by rgate.ampr.org (JNOS2.0q.1) with SMTP
	id AA1367 ; Sun, 17 May 2026 02:26:29 +0200
Received: by rgate.ampr.org with SMTP
	id AA1364 ; Sun, 17 May 2026 02:25:55 +0200
Message-Id: <1365@rgate.ampr.org>
>From: i0ojj@rgate.ampr.org

SB KEPS @ AMSAT  $ORB26137.1
2Line Orbital Elements 26137.AMSAT

QST de W1STR

AMSAT Orbital Elements for Amateur Satellites in TLE Format
>From Orbital Analysis Office
New England Sci-Tech STEM Education Center
Natick MA May 17, 2026
To all radio amateurs


These element sets describe the orbits of various satellites 
in use by the amateur radio community. For details see:
www.amsat.org/keplerian-elements-formats/

A daily update of element sets is available at:
www.amsat.org/tle/daily-bulletin.txt
or without bulletin text:
www.amsat.org/tle/dailytle.txt


AO-07
1 07530U 74089B   26136.80729118 -.00000036  00000-0  68078-4 0  9990
2 07530 101.9914 149.7257 0012189 189.2243 344.2759 12.53697615356583
UO-11
1 14781U 84021B   26136.87535701  .00000616  00000-0  68513-4 0  9990
2 14781  97.8040 102.8061 0006136 292.8273  67.2296 14.90703215252461
AO-27
1 22825U 93061C   26136.81371422  .00000059  00000-0  39415-4 0  9994
2 22825  98.6890 204.2362 0008285 184.6679 175.4427 14.30933054702511
FO-29
1 24278U 96046B   26136.81433125  .00000011  00000-0  46486-4 0  9997
2 24278  98.5272 349.9786 0349912 177.6934 182.5921 13.53272582468924
GO-32
1 25397U 98043D   26136.73594227  .00000013  00000-0  25995-4 0  9995
2 25397  99.0065 128.7032 0000801   4.6491 355.4694 14.24421797446857
ISS
1 25544U 98067A   26136.58530756  .00005157  00000-0  10087-3 0  9994
2 25544  51.6318  96.5382 0007530  65.5821 294.5953 15.49234512566854
NO-44
1 26931U 01043C   26136.79859532  .00000069  00000-0  56662-4 0  9999
2 26931  67.0509 325.4572 0006243 263.6644  96.3747 14.31943045285953
SO-50
1 27607U 02058C   26136.66362444  .00000613  00000-0  90219-4 0  9995
2 27607  64.5521 226.5121 0075629 268.2379  91.0064 14.82976040259784
CO-55
1 27844U 03031E   26136.42534242  .00000186  00000-0  99595-4 0  9992
2 27844  98.6746 145.3835 0008292 279.0347  80.9894 14.24314816187153
RS-22
1 27939U 03042A   26136.84773990  .00000883  00000-0  14436-3 0  9994
2 27939  98.3464 320.3236 0011635  14.8021  97.5384 14.73409183210938
CO-65
1 32785U 08021C   26136.88985128  .00004121  00000-0  26370-3 0  9992
2 32785  97.8264 117.6689 0010276 128.7006 231.5143 15.09131603980477
CO-66
1 32791U 08021J   26136.78723764  .00015703  00000-0  51656-3 0  9997
2 32791  97.7519 133.2158 0004890  77.0859 283.0928 15.31606988982482
RS-30
1 32953U 08025A   26136.79249867 -.00000000  00000-0 -73165-4 0  9995
2 32953  82.5075  14.9704 0020215  22.4318 337.7641 12.43177897815796
SRMSAT
1 37841U 11058D   26136.70989595  .00000364  00000-0  53681-4 0  9998
2 37841  19.9717 249.9997 0011614 217.6540 290.2628 14.11568356753369
ZACUBE-1
1 39417U 13066B   26136.87679713  .00003131  00000-0  24635-3 0  9997
2 39417  97.8122  99.0440 0041362 358.2569   1.8503 15.00930533676033
Delfi-N3xt
1 39428U 13066N   26136.78512806  .00005536  00000-0  48890-3 0  9998
2 39428  97.8352  57.1333 0073586 312.3796  47.1210 14.94707445669937
GOMX-1
1 39430U 13066Q   26136.79313270  .00001047  00000-0  16385-3 0  9993
2 39430  97.6508 339.2365 0128741 177.6681 182.5154 14.69325444665304
LO-74
1 39440U 13066AA  26136.84470106  .00001744  00000-0  16579-3 0  9991
2 39440  97.8896  85.7015 0059076 130.2272 230.4138 14.93504727672311
AO-73
1 39444U 13066AE  26136.89618544  .00005146  00000-0  32477-3 0  9995
2 39444  97.8262 107.7027 0034943 312.5804  47.2476 15.09058385674944
DTUSAT-2
1 40030U 14033W   26136.79485465  .00005772  00000-0  31663-3 0  9997
2 40030  98.0862 132.5413 0007474 356.0724   4.0447 15.14579159647935
LILACSAT-2
1 40908U 15049K   26136.85027884  .00015798  00000-0  27973-3 0  9991
2 40908  97.4681 172.5210 0007212  24.9370 335.2229 15.50349771590892
Horyu-4
1 41340U 16012D   26136.85064051  .00166597  00000-0  87779-3 0  9994
2 41340  30.9885 305.8839 0004970  58.9439 301.1705 15.79065819565836
Lapan A3
1 41603U 16040E   26136.85957573  .00002399  00000-0  77705-4 0  9995
2 41603  97.1486 134.0413 0011993 122.4554 237.7850 15.32894859550010
CAS-2T
1 41847U 16066G   26136.65611683  .00000652  00000-0  10148-3 0  9997
2 41847  98.3826 212.7497 0341230 225.0916 132.2118 14.44595835500249
TechnoSat
1 42829U 17042E   26136.66475110  .00002335  00000-0  16938-3 0  9990
2 42829  97.4244 295.5337 0017374 197.8426 162.2193 15.04745787481960
AO-91
1 43017U 17073E   26136.71561198  .00008713  00000-0  38182-3 0  9993
2 43017  97.4745   4.5844 0153840  77.4529 284.3860 15.12104265460630
S-Net D
1 43186U 18014G   26136.72416206  .00003483  00000-0  18286-3 0  9998
2 43186  97.5391  41.7154 0009787 121.2042 239.0151 15.16352925453993
S-Net B
1 43187U 18014H   26136.80099332  .00003585  00000-0  18824-3 0  9996
2 43187  97.5395  41.7773 0010524 117.3756 242.8549 15.16323366454007
S-Net A
1 43188U 18014J   26136.78918804  .00003366  00000-0  17677-3 0  9990
2 43188  97.5407  41.9686 0010366 117.8497 242.3787 15.16359971454008
S-Net C
1 43189U 18014K   26136.80470197  .00003664  00000-0  19230-3 0  9990
2 43189  97.5423  42.0538 0011876 112.2463 248.0030 15.16314549452558
Ten-Koh
1 43677U 18084G   26136.76404653  .00000885  00000-0  71089-4 0  9991
2 43677  98.0754 327.8077 0008656 218.8382 141.2221 15.02782891411443
PO-101
1 43678U 18084H   26136.82491106  .00001918  00000-0  15818-3 0  9993
2 43678  98.1105 331.6872 0011807 279.2284  80.7602 15.00288081411513
QO-100
1 43700U 18090A   26136.81945203  .00000153  00000-0  00000+0 0  9990
2 43700   0.0174 298.2220 0001188 142.8260 114.3061  1.00268495 27363
MinXSS-2
1 43758U 18099A   26136.63066397  .00029397  00000-0  62919-3 0  9992
2 43758  97.4551 212.0433 0007079  31.5416 328.6255 15.44726682409254
AO-95
1 43770U 18099N   26136.60965811  .00009799  00000-0  38345-3 0  9992
2 43770  97.4406 196.9868 0010469 100.4632 259.7786 15.25978916408409
SNUSat 2
1 43782U 18099AA  26136.56960196  .00006742  00000-0  30377-3 0  9993
2 43782  97.4082 190.4477 0011468  54.2570 305.9731 15.21319097408223
SnugLite
1 43784U 18099AC  26136.61960184  .00010212  00000-0  39446-3 0  9991
2 43784  97.3893 191.2240 0003999  64.7180 295.4472 15.26440539408501
ITASat 1
1 43786U 18099AE  26136.59593792  .00005314  00000-0  25931-3 0  9998
2 43786  97.4052 188.7444 0014397 102.7635 257.5209 15.18618775408114
EAGLET 1
1 43790U 18099AJ  26136.56814840  .00003032  00000-0  17665-3 0  9990
2 43790  97.4256 187.0766 0012884  95.5413 264.7288 15.12677634407553
ESEO
1 43792U 18099AL  26136.84815185  .00001435  00000-0  10746-3 0  9994
2 43792  97.4001 175.5763 0013543  82.3485 277.9279 15.04145131407096
JO-97
1 43803U 18099AX  26136.83183681  .00014068  00000-0  44893-3 0  9991
2 43803  97.4150 199.5799 0005994  39.0732 321.0941 15.32592458408822
Suomi 100
1 43804U 18099AY  26136.83843014  .00010311  00000-0  38362-3 0  9996
2 43804  97.4210 197.3633 0010647  40.4803 319.7226 15.27641345408632
ISAT
1 43879U 18111D   26136.84475744  .00062896  00000-0  77597-3 0  9993
2 43879  97.5908  69.7934 0007865  75.4774 284.7354 15.59943971406274
UWE-4
1 43880U 18111E   26136.80461839  .00025481  00000-0  55721-3 0  9995
2 43880  97.5868  63.8013 0010608  81.9812 278.2639 15.44089062405930
Sparrow
1 43881U 18111F   26136.83762308  .00086135  00000-0  82463-3 0  9990
2 43881  97.6135  74.9171 0007609 101.3385 258.8730 15.66375105406450
Prox-1
1 44339U 19036A   26136.85383105  .00010424  00000-0  10303-2 0  9993
2 44339  23.9964 323.4261 0006727  31.0822 329.0075 14.89821207368798
Taurus 1
1 44530U 19059C   26136.76843104  .00004398  00000-0  71314-3 0  9994
2 44530  98.6389 299.6610 0009288  57.5874 302.6228 14.71732137354020
TO-108
1 44881U 19093C   26136.81106201  .00000324  00000-0  42713-4 0  9994
2 44881  97.7543 209.8074 0013319 184.1627 175.9480 14.86461321346753
RS-44
1 44909U 19096E   26136.88889133  .00000036  00000-0  10413-3 0  9998
2 44909  82.5236   0.5064 0216777 217.3453 141.2413 12.79748289298343
SALSAT
1 46495U 20068K   26136.80914700  .00006032  00000-0  21480-3 0  9990
2 46495  97.8854 137.9767 0011317  59.3506 300.8846 15.29304779310563
CSS (TIANHE-1)
1 48274U 21035A   26136.74207985  .00012846  00000-0  15443-3 0  9997
2 48274  41.4667 153.2288 0007344 244.4572 115.5507 15.60615210288256
CUTE
1 49263U 21088D   26136.26583512  .00092768  00000-0  51887-3 0  9997
2 49263  97.4205 232.8166 0001950 268.4354  91.6689 15.79089421257490
TeikyoSat 4
1 49396U 21102B   26136.83114551  .00001409  00000-0  91851-4 0  9995
2 49396  97.3695 167.5328 0013244  47.2787 312.9555 15.09387702247996
Z-Sat
1 49399U 21102E   26136.88962699  .00004166  00000-0  20738-3 0  9995
2 49399  97.3354 173.1641 0016576   3.3550 356.7792 15.18012410248692
KOSEN 1
1 49402U 21102H   26136.80999218  .00005653  00000-0  21972-3 0  9992
2 49402  97.3209 179.5834 0012403 324.4534  35.5877 15.26373421249232
HO-113
1 50466U 21131B   26136.88503543  .00000301  00000-0  10669-3 0  9992
2 50466  98.4967 229.4469 0004099 174.8012 185.3220 14.41324944230605
SNUGLITE 2
1 52899U 22065F   26136.39332805  .00000590  00000-0  12099-3 0  9997
2 52899  98.2159 281.2890 0008665 119.9133 240.2931 14.64283145206345
